Location: Riverside
(39.1734°N, 77.8561°W)
Time: 04:43:51
(UTC+00:00)

BEESAT 3 - Pass Details

Date: 01 June 2019
Orbit: 484 x 526 km, 64.9° (Epoch: 18 June)

Event Time Altitude Azimuth Distance (km) Brightness Sun altitude
Rises 03:26:25 0° 337° (NNW) 2,663 ? -24.3°
Reaches altitude 10° 03:28:46 10° 347° (NNW) 1,773 ? -24.5°
Enters shadow 03:32:08 32° 44° (NE) 923 ? -24.7°
